Simultaneous Nadir Overpasses (SNOs) Predictions

Prediction of SNOs between GOES-15 and METOP-B Satellite Orbit:

Table of predicted SNOs for the next 14.0 days since TLE Epoch: 5/18/2018
Index Date Time (GOES-15) GOES-15 Lat,Lon METOP-B Lat,Lon Distance(km) Time Diff (sec)
1 05/19/2018 06:44:04 0.15,-135.32 -0.63,-138.95 413.31 80
2 05/20/2018 06:26:04 0.16,-135.30 0.46,-133.95 153.41 80
3 05/21/2018 18:44:54 -0.16,-135.28 0.58,-138.50 368.10 80
4 05/22/2018 18:21:35 -0.17,-135.26 -0.56,-133.52 198.31 80
5 05/24/2018 06:40:34 0.16,-135.20 -0.47,-138.11 331.69 80
6 05/25/2018 06:22:33 0.17,-135.17 0.62,-133.11 234.77 80
7 05/26/2018 18:41:25 -0.16,-135.16 0.37,-137.68 287.05 80
8 05/27/2018 18:18:04 -0.17,-135.13 -0.72,-132.68 278.95 80
9 05/29/2018 06:39:44 0.16,-135.06 -0.30,-137.28 251.93 80
10 05/30/2018 06:19:03 0.17,-135.03 0.78,-132.28 313.81 80
11 05/31/2018 18:37:53 -0.17,-135.00 0.27,-136.83 209.07 80




NCC Satellite Simultaneous Nadir Overpasses (SNOs) Prediction Service
